KN6KS Weather Reports


time (UTC)temp
C
wind
direction
speed
KPH
gust
KPH
rain 1hr
cm
rain 24hr
cm
rain mn
cm
humidity
%
barometer
mb
20260506222256 28 45 6.4 9.7 0.00 0.00 0.00 22 1014.8
20260506221754 27 95 6.4 9.7 0.00 0.00 0.00 22 1014.9
20260506221252 27 109 3.2 9.7 0.00 0.00 0.00 22 1014.9
20260506220749 28 55 3.2 3.2 0.00 0.00 0.00 23 1014.9
20260506220244 28 195 3.2 3.2 0.00 0.00 0.00 23 1014.9
20260506215741 26 53 4.8 4.8 0.00 0.00 0.00 24 1015.0
20260506215237 27 351 8.0 9.7 0.00 0.00 0.00 24 1015.2
20260506214733 27 63 4.8 8.0 0.00 0.00 0.00 23 1015.4
20260506214231 27 56 6.4 11.3 0.00 0.00 0.00 24 1015.5
20260506213728 26 230 1.6 1.6 0.00 0.00 0.00 26 1015.5
20260506213225 26 16 16.1 17.7 0.00 0.00 0.00 25 1015.5
20260506212723 26 247 3.2 3.2 0.00 0.00 0.00 26 1015.3
20260506212218 26 38 11.3 12.9 0.00 0.00 0.00 25 1015.5
20260506211714 26 273 0.0 1.6 0.00 0.00 0.00 25 1015.5
20260506211210 26 103 11.3 17.7 0.00 0.00 0.00 25 1015.5
20260506210707 27 85 3.2 4.8 0.00 0.00 0.00 25 1015.5
20260506210204 27 184 6.4 9.7 0.00 0.00 0.00 25 1015.6
20260506205701 27 216 4.8 8.0 0.00 0.00 0.00 24 1015.8
20260506205156 27 160 6.4 8.0 0.00 0.00 0.00 24 1015.5
20260506204654 26 36 4.8 4.8 0.00 0.00 0.00 27 1015.7
20260506204151 26 91 6.4 9.7 0.00 0.00 0.00 26 1015.7
20260506203649 26 92 4.8 8.0 0.00 0.00 0.00 26 1015.7
20260506203146 25 231 4.8 9.7 0.00 0.00 0.00 27 1015.7
20260506202644 26 99 6.4 11.3 0.00 0.00 0.00 27 1015.9
20260506202139 26 52 3.2 4.8 0.00 0.00 0.00 26 1015.7
20260506201636 25 59 8.0 9.7 0.00 0.00 0.00 27 1015.9
20260506201133 26 140 4.8 4.8 0.00 0.00 0.00 26 1016.1
20260506200630 26 98 6.4 8.0 0.00 0.00 0.00 26 1016.0
20260506200126 26 162 4.8 4.8 0.00 0.00 0.00 26 1016.1
20260506195623 25 57 6.4 8.0 0.00 0.00 0.00 27 1015.9
20260506195119 25 37 8.0 12.9 0.00 0.00 0.00 27 1015.9
20260506194617 25 57 9.7 9.7 0.00 0.00 0.00 26 1016.1
20260506194113 25 298 3.2 3.2 0.00 0.00 0.00 30 1015.9
20260506193611 25 94 3.2 3.2 0.00 0.00 0.00 29 1016.1
20260506193108 25 256 0.0 1.6 0.00 0.00 0.00 29 1016.2
20260506192605 24 223 0.0 0.0 0.00 0.00 0.00 29 1015.9
20260506192101 25 354 3.2 3.2 0.00 0.00 0.00 30 1016.2
20260506191557 25 229 6.4 8.0 0.00 0.00 0.00 31 1015.9
20260506191053 23 78 6.4 8.0 0.00 0.00 0.00 30 1016.2
20260506190551 23 237 0.0 1.6 0.00 0.00 0.00 30 1016.3
20260506190048 23 234 6.4 8.0 0.00 0.00 0.00 31 1016.2
20260506185545 23 313 3.2 3.2 0.00 0.00 0.00 30 1016.3
20260506185041 23 357 3.2 8.0 0.00 0.00 0.00 32 1016.6
20260506184539 23 259 1.6 1.6 0.00 0.00 0.00 32 1016.3
20260506184036 23 24 6.4 9.7 0.00 0.00 0.00 33 1016.4
20260506183532 23 343 11.3 14.5 0.00 0.00 0.00 32 1016.7
20260506183029 23 252 4.8 4.8 0.00 0.00 0.00 32 1016.4
20260506182526 23 49 4.8 4.8 0.00 0.00 0.00 33 1016.8
20260506182023 22 229 0.0 1.6 0.00 0.00 0.00 31 1016.8
20260506181521 22 282 1.6 1.6 0.00 0.00 0.00 32 1016.7
20260506181018 22 308 4.8 4.8 0.00 0.00 0.00 34 1016.7
20260506180514 22 309 6.4 8.0 0.00 0.00 0.00 33 1016.4
20260506180011 22 327 3.2 3.2 0.00 0.00 0.00 38 1016.7
20260506175508 21 113 1.6 3.2 0.00 0.00 0.00 38 1016.9
20260506175004 21 106 4.8 8.0 0.00 0.00 0.00 38 1016.8
20260506174502 21 206 4.8 8.0 0.00 0.00 0.00 36 1016.8
20260506173958 21 159 8.0 9.7 0.00 0.00 0.00 36 1016.7
20260506173456 21 173 8.0 16.1 0.00 0.00 0.00 38 1016.8
20260506172952 21 168 4.8 4.8 0.00 0.00 0.00 38 1017.0
20260506172450 21 166 4.8 4.8 0.00 0.00 0.00 37 1016.8
20260506171946 20 240 4.8 8.0 0.00 0.00 0.00 41 1017.0
20260506171444 19 245 1.6 1.6 0.00 0.00 0.00 42 1016.8
20260506170941 19 193 6.4 9.7 0.00 0.00 0.00 43 1017.1
20260506170437 19 223 3.2 3.2 0.00 0.00 0.00 43 1017.1
20260506165930 19 201 6.4 8.0 0.00 0.00 0.00 43 1017.0
20260506165429 18 268 3.2 4.8 0.00 0.00 0.00 43 1017.0
20260506164924 18 120 3.2 3.2 0.00 0.00 0.00 44 1017.0
20260506164421 18 38 4.8 4.8 0.00 0.00 0.00 44 1017.1
20260506163914 18 242 4.8 4.8 0.00 0.00 0.00 45 1017.1
20260506163414 19 241 1.6 3.2 0.00 0.00 0.00 44 1017.0
20260506162908 18 178 4.8 8.0 0.00 0.00 0.00 44 1017.1
20260506162407 18 231 0.0 1.6 0.00 0.00 0.00 45 1017.1
20260506161858 18 226 0.0 1.6 0.00 0.00 0.00 45 1017.1
20260506161355 17 208 3.2 3.2 0.00 0.00 0.00 45 1017.0
20260506160854 18 39 3.2 4.8 0.00 0.00 0.00 45 1017.1
20260506160350 18 265 0.0 1.6 0.00 0.00 0.00 45 1017.2
20260506155848 17 189 3.2 3.2 0.00 0.00 0.00 48 1017.0
20260506155345 17 116 3.2 3.2 0.00 0.00 0.00 47 1017.0
20260506153502 16 108 4.8 4.8 0.00 0.00 0.00 49 1017.1
20260506153000 16 152 4.8 4.8 0.00 0.00 0.00 52 1017.0
20260506152456 16 162 4.8 4.8 0.00 0.00 0.00 52 1017.0
20260506151954 15 112 3.2 4.8 0.00 0.00 0.00 53 1017.0
20260506151452 15 121 3.2 3.2 0.00 0.00 0.00 54 1017.1
20260506150949 15 226 0.0 3.2 0.00 0.00 0.00 54 1017.2
20260506150445 15 123 6.4 8.0 0.00 0.00 0.00 55 1017.1
20260506145942 15 138 4.8 8.0 0.00 0.00 0.00 56 1017.2
20260506145438 14 107 0.0 1.6 0.00 0.00 0.00 57 1017.0
20260506144936 14 118 6.4 8.0 0.00 0.00 0.00 58 1017.2
20260506144432 13 103 6.4 8.0 0.00 0.00 0.00 59 1016.8
20260506143931 13 114 6.4 8.0 0.00 0.00 0.00 61 1016.8
20260506143428 13 112 3.2 3.2 0.00 0.00 0.00 62 1016.8
20260506142926 13 79 0.0 1.6 0.00 0.00 0.00 62 1017.0
20260506142424 13 219 0.0 0.0 0.00 0.00 0.00 63 1016.8
20260506141921 13 207 0.0 0.0 0.00 0.00 0.00 62 1016.9
20260506141419 12 214 0.0 0.0 0.00 0.00 0.00 63 1016.6
20260506140917 12 230 0.0 0.0 0.00 0.00 0.00 63 1016.8
20260506140414 11 230 0.0 0.0 0.00 0.00 0.00 68 1016.8
20260506135911 11 228 0.0 0.0 0.00 0.00 0.00 68 1016.7
20260506135408 11 213 0.0 0.0 0.00 0.00 0.00 70 1016.8
20260506134904 10 213 0.0 0.0 0.00 0.00 0.00 71 1016.7
20260506134400 10 213 0.0 0.0 0.00 0.00 0.00 71 1016.3
20260506133857 10 213 0.0 0.0 0.00 0.00 0.00 70 1016.4
20260506133354 10 213 0.0 0.0 0.00 0.00 0.00 71 1016.4
20260506132850 10 213 1.6 1.6 0.00 0.00 0.00 72 1016.2
20260506132348 10 210 0.0 0.0 0.00 0.00 0.00 72 1016.2
20260506131846 10 202 0.0 0.0 0.00 0.00 0.00 72 1016.2
20260506131342 10 220 0.0 0.0 0.00 0.00 0.00 72 1016.0
20260506130839 10 211 0.0 0.0 0.00 0.00 0.00 71 1016.2
20260506130335 9 221 1.6 3.2 0.00 0.00 0.00 73 1016.0
20260506125833 10 196 3.2 3.2 0.00 0.00 0.00 73 1015.9
20260506125332 10 191 3.2 4.8 0.00 0.00 0.00 73 1016.0
20260506124830 10 211 3.2 3.2 0.00 0.00 0.00 74 1016.3
20260506124326 10 198 3.2 3.2 0.00 0.00 0.00 73 1016.2
20260506123824 10 216 3.2 3.2 0.00 0.00 0.00 72 1016.3
20260506123322 9 222 0.0 0.0 0.00 0.00 0.00 74 1016.2
20260506122819 10 223 0.0 0.0 0.00 0.00 0.00 74 1016.1
20260506122316 9 225 0.0 0.0 0.00 0.00 0.00 75 1016.2
20260506121814 9 226 0.0 0.0 0.00 0.00 0.00 75 1016.0
20260506121311 9 225 0.0 0.0 0.00 0.00 0.00 74 1015.9
20260506120808 10 226 0.0 0.0 0.00 0.00 0.00 73 1015.8
20260506120306 10 196 0.0 0.0 0.00 0.00 0.00 72 1015.9
20260506115803 10 215 0.0 0.0 0.00 0.00 0.00 72 1016.0
20260506115306 10 217 0.0 0.0 0.00 0.00 0.00 71 1015.9
20260506114759 10 226 0.0 0.0 0.00 0.00 0.00 70 1015.9
20260506114256 10 220 0.0 0.0 0.00 0.00 0.00 71 1015.7
20260506113755 10 272 0.0 0.0 0.00 0.00 0.00 71 1015.7
20260506113252 10 169 3.2 3.2 0.00 0.00 0.00 70 1015.7
20260506112748 11 225 0.0 0.0 0.00 0.00 0.00 68 1015.7
20260506112246 11 232 0.0 0.0 0.00 0.00 0.00 67 1015.7
20260506111743 11 244 0.0 0.0 0.00 0.00 0.00 66 1015.8
20260506111241 11 257 4.8 4.8 0.00 0.00 0.00 67 1015.7
20260506110737 11 229 3.2 3.2 0.00 0.00 0.00 67 1015.6
20260506110235 11 262 3.2 3.2 0.00 0.00 0.00 67 1015.5
20260506105732 11 277 4.8 4.8 0.00 0.00 0.00 66 1015.8
20260506105229 11 255 4.8 4.8 0.00 0.00 0.00 66 1015.6
20260506104727 11 325 3.2 4.8 0.00 0.00 0.00 66 1015.6
20260506104224 11 252 0.0 1.6 0.00 0.00 0.00 66 1015.6
20260506103721 11 247 0.0 1.6 0.00 0.00 0.00 67 1015.6
20260506103218 11 251 1.6 1.6 0.00 0.00 0.00 66 1015.4
20260506102716 11 248 8.0 9.7 0.00 0.00 0.00 65 1015.5
20260506102214 11 217 8.0 8.0 0.00 0.00 0.00 66 1015.6
20260506101710 11 257 8.0 9.7 0.00 0.00 0.00 65 1015.5
20260506101207 11 233 16.1 17.7 0.00 0.00 0.00 66 1015.6
20260506100705 11 260 8.0 9.7 0.00 0.00 0.00 66 1015.4
20260506100203 11 273 12.9 14.5 0.00 0.00 0.00 66 1015.6
20260506095701 11 256 16.1 17.7 0.00 0.00 0.00 66 1015.4
20260506095157 11 218 20.9 24.1 0.00 0.00 0.00 67 1015.5
20260506094655 11 222 14.5 16.1 0.00 0.00 0.00 67 1015.4
20260506094152 11 232 17.7 20.9 0.00 0.00 0.00 67 1015.4
20260506093651 11 213 14.5 16.1 0.00 0.00 0.00 67 1015.5
20260506093148 11 227 17.7 22.5 0.00 0.00 0.00 66 1015.4
20260506092646 11 245 16.1 20.9 0.00 0.00 0.00 67 1015.5
20260506092143 11 211 12.9 14.5 0.00 0.00 0.00 68 1015.4
20260506091640 11 257 11.3 12.9 0.00 0.00 0.00 68 1015.3
20260506091138 11 240 14.5 14.5 0.00 0.00 0.00 68 1015.4
20260506090636 11 285 14.5 20.9 0.00 0.00 0.00 68 1015.3
20260506090132 11 218 19.3 22.5 0.00 0.00 0.00 67 1015.3
20260506085629 11 244 14.5 24.1 0.00 0.00 0.00 68 1015.4
20260506085125 11 222 17.7 20.9 0.00 0.00 0.00 67 1015.7
20260506084622 11 237 14.5 16.1 0.00 0.00 0.00 67 1015.4
20260506084118 11 262 11.3 12.9 0.00 0.00 0.00 68 1015.7
20260506083615 11 245 14.5 17.7 0.00 0.00 0.00 68 1015.7
20260506083113 11 256 11.3 12.9 0.00 0.00 0.00 67 1015.5
20260506082609 11 252 20.9 24.1 0.00 0.00 0.00 68 1015.6
20260506082105 11 281 16.1 17.7 0.00 0.00 0.00 68 1015.4
20260506081604 11 237 20.9 25.7 0.00 0.00 0.00 68 1015.7
20260506081101 11 242 22.5 29.0 0.00 0.00 0.00 67 1015.5
20260506080558 11 274 24.1 29.0 0.00 0.00 0.00 67 1015.5
20260506073038 11 281 16.1 20.9 0.00 0.00 0.00 67 1015.7
20260506072536 11 187 24.1 27.4 0.00 0.00 0.00 67 1015.6
20260506072034 11 242 17.7 25.7 0.00 0.00 0.00 67 1015.5
20260506071531 11 231 22.5 27.4 0.00 0.00 0.00 67 1015.5
20260506071028 11 280 11.3 14.5 0.00 0.00 0.00 67 1015.3
20260506070525 11 249 11.3 14.5 0.00 0.00 0.00 67 1015.6
20260506062503 12 231 19.3 22.5 0.00 0.00 0.00 65 1015.0
20260506061959 12 224 16.1 17.7 0.00 0.00 0.00 65 1014.7
20260506061455 12 247 17.7 22.5 0.00 0.00 0.00 64 1014.8
20260506060953 12 228 19.3 24.1 0.00 0.00 0.00 65 1014.7
20260506060451 11 260 20.9 24.1 0.00 0.00 0.00 67 1014.9
20260506050920 12 280 27.4 33.8 0.00 0.00 0.00 67 1014.5
20260506050417 12 232 19.3 22.5 0.00 0.00 0.00 67 1014.6
20260506044908 12 234 11.3 12.9 0.00 0.00 0.00 67 1014.5
20260506044406 12 226 24.1 27.4 0.00 0.00 0.00 67 1014.6
20260506043903 12 207 12.9 17.7 0.00 0.00 0.00 67 1014.3
20260506043400 12 232 11.3 12.9 0.00 0.00 0.00 68 1014.2
20260506042858 12 255 14.5 17.7 0.00 0.00 0.00 68 1014.1
20260506042357 12 247 14.5 16.1 0.00 0.00 0.00 68 1014.2
20260506041855 12 263 9.7 14.5 0.00 0.00 0.00 69 1014.1
20260506041352 12 249 14.5 16.1 0.00 0.00 0.00 68 1014.1
20260506040849 12 249 11.3 12.9 0.00 0.00 0.00 68 1014.2
20260506040347 12 257 11.3 12.9 0.00 0.00 0.00 69 1014.1
20260506035842 12 251 19.3 22.5 0.00 0.00 0.00 69 1014.1
20260506035340 12 252 16.1 22.5 0.00 0.00 0.00 68 1014.1
20260506034837 12 238 14.5 17.7 0.00 0.00 0.00 68 1013.9
20260506034334 12 248 12.9 17.7 0.00 0.00 0.00 68 1013.6
20260506033831 12 255 17.7 24.1 0.00 0.00 0.00 68 1013.6
20260506033328 12 241 11.3 14.5 0.00 0.00 0.00 67 1014.1
20260506032825 12 251 12.9 14.5 0.00 0.00 0.00 66 1013.9
20260506032322 12 257 11.3 12.9 0.00 0.00 0.00 66 1013.8
20260506031819 12 244 14.5 14.5 0.00 0.00 0.00 66 1014.0
20260506031316 12 269 14.5 17.7 0.00 0.00 0.00 66 1013.3
20260506030814 12 259 11.3 12.9 0.00 0.00 0.00 65 1013.5
20260506030312 12 247 14.5 17.7 0.00 0.00 0.00 65 1013.8
20260506025808 12 260 12.9 16.1 0.00 0.00 0.00 65 1013.4
20260506025306 12 245 8.0 9.7 0.00 0.00 0.00 65 1013.5
20260506024802 13 251 17.7 17.7 0.00 0.00 0.00 65 1013.4
20260506024258 13 276 8.0 9.7 0.00 0.00 0.00 64 1013.4
20260506023754 13 266 9.7 11.3 0.00 0.00 0.00 64 1013.3
20260506023252 13 272 14.5 16.1 0.00 0.00 0.00 64 1013.0
20260506022748 13 285 17.7 20.9 0.00 0.00 0.00 63 1013.2
20260506022246 13 252 9.7 12.9 0.00 0.00 0.00 63 1013.1
20260506021744 13 278 8.0 9.7 0.00 0.00 0.00 62 1013.0
20260506021240 13 262 9.7 11.3 0.00 0.00 0.00 62 1013.1
20260506020737 13 222 12.9 16.1 0.00 0.00 0.00 61 1012.8
20260506020235 13 244 11.3 14.5 0.00 0.00 0.00 61 1013.0
20260506015733 14 264 20.9 25.7 0.00 0.00 0.00 61 1012.7
20260506015230 14 285 17.7 20.9 0.00 0.00 0.00 60 1012.9
20260506014727 14 256 20.9 25.7 0.00 0.00 0.00 58 1012.8
20260506014223 15 276 12.9 14.5 0.00 0.00 0.00 59 1012.6
20260506013720 14 264 14.5 17.7 0.00 0.00 0.00 57 1012.7
20260506013218 15 342 25.7 32.2 0.00 0.00 0.00 56 1012.7
20260506012714 15 180 20.9 29.0 0.00 0.00 0.00 56 1012.8
20260506012211 15 314 20.9 27.4 0.00 0.00 0.00 56 1012.9
20260506011708 15 281 22.5 27.4 0.00 0.00 0.00 58 1012.7
20260506011204 15 273 14.5 17.7 0.00 0.00 0.00 58 1012.9
20260506010703 15 267 27.4 32.2 0.00 0.00 0.00 58 1012.7
20260506010200 15 270 12.9 16.1 0.00 0.00 0.00 57 1012.6
20260506005657 15 299 19.3 24.1 0.00 0.00 0.00 55 1012.8
20260506005153 15 272 20.9 24.1 0.00 0.00 0.00 55 1012.6
20260506004649 15 252 17.7 24.1 0.00 0.00 0.00 56 1012.4
20260506004147 15 269 22.5 27.4 0.00 0.00 0.00 56 1012.5
20260506003643 15 273 16.1 17.7 0.00 0.00 0.00 54 1012.1
20260506003139 15 266 29.0 40.2 0.00 0.00 0.00 55 1012.5
20260506002635 15 277 30.6 35.4 0.00 0.00 0.00 54 1012.1
20260506002132 15 257 20.9 24.1 0.00 0.00 0.00 55 1012.1
20260506001627 15 287 22.5 27.4 0.00 0.00 0.00 54 1011.9
20260506001125 15 272 19.3 25.7 0.00 0.00 0.00 53 1011.8
20260506000622 16 270 19.3 32.2 0.00 0.00 0.00 51 1011.9
20260506000120 16 274 24.1 27.4 0.00 0.00 0.00 52 1012.0
20260505235618 16 251 22.5 27.4 0.00 0.00 0.00 51 1011.9
20260505235114 16 164 29.0 40.2 0.00 0.00 0.00 50 1011.8
20260505234612 16 223 20.9 27.4 0.00 0.00 0.00 52 1011.7
20260505234108 16 271 20.9 27.4 0.00 0.00 0.00 50 1011.7
20260505233606 17 285 19.3 22.5 0.00 0.00 0.00 51 1011.7
20260505233103 16 290 16.1 17.7 0.00 0.00 0.00 50 1011.7
20260505232601 16 249 24.1 29.0 0.00 0.00 0.00 51 1011.6
20260505232058 16 214 25.7 29.0 0.00 0.00 0.00 52 1011.5
20260505231554 16 263 24.1 29.0 0.00 0.00 0.00 52 1011.4
20260505231053 16 242 19.3 25.7 0.00 0.00 0.00 52 1011.4
20260505230550 16 229 17.7 22.5 0.00 0.00 0.00 50 1011.5
20260505230046 17 294 17.7 24.1 0.00 0.00 0.00 48 1011.6
20260505225544 17 252 25.7 29.0 0.00 0.00 0.00 47 1011.6
20260505225039 16 259 17.7 20.9 0.00 0.00 0.00 48 1011.9
20260505224537 17 293 27.4 33.8 0.00 0.00 0.00 46 1011.8
20260505224034 17 198 22.5 27.4 0.00 0.00 0.00 47 1011.8
20260505223531 17 290 17.7 20.9 0.00 0.00 0.00 49 1011.8
20260505223027 17 248 16.1 20.9 0.00 0.00 0.00 49 1012.0
20260505222523 16 268 19.3 24.1 0.00 0.00 0.00 50 1011.8